• în România
  • Lista ţărilor
  • Pe 7 zile
  • Temperatura apei
  • Hartă satelitară
  • Meteo pe hartă
  • Widget-uri
  • user-avatar
    Intrare

    Meteo pe oră la Pula

    Astăzi, 20 Octombrie, Vineri

    Timp Temperatura Precipitaţii Vânt Presiune Umiditate
    00:00 +15°C° 0 mm 1 m/s 756 mmHg 77%
    01:00 +15°C° 0 mm 1 m/s 756 mmHg 73%
    02:00 +15°C° 0 mm 1 m/s 756 mmHg 74%
    03:00 +15°C° 0 mm 1 m/s 756 mmHg 75%
    04:00 +15°C° 0 mm 1 m/s 756 mmHg 76%
    05:00 +15°C° 0 mm 1 m/s 756 mmHg 76%
    06:00 +15°C° 0 mm 1 m/s 757 mmHg 76%
    07:00 +15°C° 0 mm 1 m/s 757 mmHg 76%
    08:00 +16°C° 0 mm 1 m/s 757 mmHg 72%
    09:00 +19°C° 0 mm 1 m/s 757 mmHg 67%
    10:00 +21°C° 0 mm 1 m/s 757 mmHg 62%
    11:00 +21°C° 0 mm 1 m/s 757 mmHg 62%
    12:00 +22°C° 0 mm 1 m/s 757 mmHg 62%
    13:00 +22°C° 0 mm 1 m/s 757 mmHg 62%
    14:00 +21°C° 0 mm 1 m/s 757 mmHg 65%
    15:00 +21°C° 0 mm 1 m/s 757 mmHg 68%
    16:00 +20°C° 0 mm 1 m/s 756 mmHg 72%
    17:00 +19°C° 0 mm 1 m/s 757 mmHg 76%
    18:00 +17°C° 0 mm 2 m/s 757 mmHg 81%
    19:00 +16°C° 0 mm 2 m/s 757 mmHg 86%
    20:00 +16°C° 0 mm 2 m/s 758 mmHg 87%
    21:00 +16°C° 0 mm 2 m/s 758 mmHg 88%
    22:00 +16°C° 0 mm 2 m/s 758 mmHg 88%
    23:00 +16°C° 0 mm 2 m/s 758 mmHg 88%

    Mâine, 21 Octombrie, Sâmbătă

    Timp Temperatura Precipitaţii Vânt Presiune Umiditate
    00:00 +15°C° 0 mm 2 m/s 758 mmHg 89%
    01:00 +15°C° 0 mm 2 m/s 758 mmHg 89%
    02:00 +15°C° 0 mm 2 m/s 758 mmHg 89%
    03:00 +15°C° 0 mm 2 m/s 758 mmHg 88%
    04:00 +15°C° 0 mm 2 m/s 758 mmHg 88%
    05:00 +15°C° 0 mm 2 m/s 758 mmHg 87%
    06:00 +15°C° 0 mm 2 m/s 758 mmHg 87%
    07:00 +15°C° 0 mm 2 m/s 758 mmHg 86%
    08:00 +17°C° 0 mm 2 m/s 758 mmHg 82%
    09:00 +18°C° 0 mm 2 m/s 758 mmHg 77%
    10:00 +19°C° 0 mm 2 m/s 758 mmHg 73%
    11:00 +20°C° 0 mm 2 m/s 758 mmHg 74%
    12:00 +20°C° 0 mm 2 m/s 757 mmHg 76%
    13:00 +20°C° 0 mm 2 m/s 757 mmHg 77%
    14:00 +20°C° 0 mm 2 m/s 757 mmHg 79%
    15:00 +20°C° 0 mm 1 m/s 757 mmHg 81%
    16:00 +20°C° 0 mm 1 m/s 756 mmHg 83%
    17:00 +19°C° 0 mm 1 m/s 757 mmHg 86%
    18:00 +19°C° 0 mm 1 m/s 757 mmHg 89%
    19:00 +18°C° 0 mm 1 m/s 757 mmHg 93%
    20:00 +17°C° 0 mm 2 m/s 757 mmHg 92%
    21:00 +17°C° 0 mm 2 m/s 757 mmHg 92%
    22:00 +17°C° 0 mm 2 m/s 757 mmHg 92%
    23:00 +17°C° 0 mm 2 m/s 756 mmHg 91%

    Poimâine, 22 Octombrie, Duminică

    Timp Temperatura Precipitaţii Vânt Presiune Umiditate
    00:00 +17°C° 0 mm 2 m/s 756 mmHg 91%
    01:00 +17°C° 0 mm 2 m/s 756 mmHg 90%
    02:00 +17°C° 0 mm 3 m/s 755 mmHg 90%
    03:00 +17°C° 0 mm 3 m/s 755 mmHg 90%
    04:00 +17°C° 0 mm 3 m/s 755 mmHg 90%
    05:00 +17°C° 0 mm 3 m/s 754 mmHg 89%
    06:00 +17°C° 0 mm 4 m/s 754 mmHg 88%
    07:00 +17°C° 0 mm 4 m/s 754 mmHg 87%
    08:00 +17°C° 0,5 mm 5 m/s 753 mmHg 88%
    09:00 +17°C° 0,5 mm 5 m/s 753 mmHg 88%
    10:00 +17°C° 0,5 mm 6 m/s 753 mmHg 89%
    11:00 +17°C° 0,6 mm 6 m/s 752 mmHg 88%
    12:00 +19°C° 0,6 mm 6 m/s 752 mmHg 87%
    13:00 +19°C° 0,6 mm 6 m/s 751 mmHg 85%
    14:00 +19°C° 0,4 mm 6 m/s 751 mmHg 84%
    15:00 +19°C° 0,4 mm 6 m/s 750 mmHg 82%
    16:00 +18°C° 0,4 mm 7 m/s 750 mmHg 81%
    17:00 +17°C° 0,2 mm 7 m/s 750 mmHg 80%
    18:00 +17°C° 0,2 mm 8 m/s 750 mmHg 78%
    19:00 +16°C° 0,2 mm 8 m/s 750 mmHg 77%
    20:00 +15°C° 0,6 mm 8 m/s 750 mmHg 77%
    21:00 +15°C° 0,6 mm 7 m/s 751 mmHg 77%
    22:00 +14°C° 0,6 mm 7 m/s 751 mmHg 77%
    23:00 +13°C° 0,9 mm 8 m/s 751 mmHg 78%

    23 Octombrie, Luni

    Timp Temperatura Precipitaţii Vânt Presiune Umiditate
    00:00 +12°C° 0,9 mm 9 m/s 751 mmHg 78%
    01:00 +12°C° 0,9 mm 10 m/s 751 mmHg 78%
    02:00 +11°C° 0,3 mm 11 m/s 751 mmHg 78%
    03:00 +10°C° 0,3 mm 12 m/s 751 mmHg 77%
    04:00 +9°C° 0,3 mm 14 m/s 751 mmHg 77%
    05:00 +9°C° 0,4 mm 13 m/s 752 mmHg 76%
    06:00 +9°C° 0,4 mm 12 m/s 752 mmHg 75%
    07:00 +9°C° 0,4 mm 11 m/s 752 mmHg 74%
    08:00 +11°C° 0,1 mm 10 m/s 753 mmHg 72%
    09:00 +11°C° 0,1 mm 9 m/s 753 mmHg 70%
    10:00 +11°C° 0,1 mm 7 m/s 754 mmHg 69%
    11:00 +12°C° 0 mm 7 m/s 753 mmHg 67%
    12:00 +14°C° 0 mm 6 m/s 753 mmHg 66%
    13:00 +15°C° 0 mm 6 m/s 753 mmHg 65%
    14:00 +15°C° 0 mm 5 m/s 753 mmHg 66%
    15:00 +15°C° 0 mm 5 m/s 753 mmHg 68%
    16:00 +14°C° 0 mm 4 m/s 753 mmHg 69%
    17:00 +14°C° 0 mm 4 m/s 754 mmHg 71%
    18:00 +13°C° 0 mm 3 m/s 754 mmHg 74%
    19:00 +12°C° 0 mm 3 m/s 754 mmHg 76%
    20:00 +12°C° 0 mm 3 m/s 755 mmHg 77%
    21:00 +13°C° 0 mm 2 m/s 755 mmHg 77%
    22:00 +12°C° 0 mm 2 m/s 755 mmHg 78%
    23:00 +12°C° 0 mm 2 m/s 755 mmHg 77%

    24 Octombrie, Marţi

    Timp Temperatura Precipitaţii Vânt Presiune Umiditate
    00:00 +12°C° 0 mm 2 m/s 755 mmHg 76%
    01:00 +12°C° 0 mm 2 m/s 755 mmHg 76%
    02:00 +12°C° 0 mm 2 m/s 755 mmHg 75%
    03:00 +12°C° 0 mm 2 m/s 755 mmHg 75%
    04:00 +12°C° 0 mm 2 m/s 755 mmHg 74%
    05:00 +12°C° 0 mm 2 m/s 755 mmHg 74%
    06:00 +12°C° 0 mm 2 m/s 755 mmHg 73%
    07:00 +12°C° 0 mm 2 m/s 755 mmHg 72%
    08:00 +14°C° 0 mm 2 m/s 755 mmHg 67%
    09:00 +15°C° 0 mm 2 m/s 755 mmHg 62%
    10:00 +17°C° 0 mm 2 m/s 756 mmHg 57%
    11:00 +18°C° 0 mm 3 m/s 756 mmHg 54%
    12:00 +19°C° 0 mm 3 m/s 756 mmHg 50%
    13:00 +19°C° 0 mm 3 m/s 755 mmHg 47%
    14:00 +19°C° 0 mm 3 m/s 756 mmHg 50%
    15:00 +18°C° 0 mm 3 m/s 756 mmHg 53%
    16:00 +18°C° 0 mm 3 m/s 756 mmHg 56%
    17:00 +17°C° 0 mm 4 m/s 756 mmHg 57%
    18:00 +15°C° 0 mm 4 m/s 757 mmHg 59%
    19:00 +14°C° 0 mm 4 m/s 758 mmHg 60%
    20:00 +14°C° 0 mm 5 m/s 758 mmHg 61%
    21:00 +14°C° 0 mm 5 m/s 759 mmHg 61%
    22:00 +14°C° 0 mm 6 m/s 759 mmHg 61%
    23:00 +13°C° 0 mm 6 m/s 759 mmHg 61%

    25 Octombrie, Miercuri

    Timp Temperatura Precipitaţii Vânt Presiune Umiditate
    00:00 +13°C° 0 mm 6 m/s 759 mmHg 62%
    01:00 +13°C° 0 mm 6 m/s 760 mmHg 63%
    02:00 +13°C° 0 mm 6 m/s 760 mmHg 63%
    03:00 +13°C° 0 mm 6 m/s 760 mmHg 64%
    04:00 +11°C° 0 mm 6 m/s 760 mmHg 64%
    05:00 +11°C° 0 mm 6 m/s 760 mmHg 65%
    06:00 +11°C° 0 mm 6 m/s 760 mmHg 66%
    07:00 +11°C° 0 mm 6 m/s 761 mmHg 68%
    08:00 +14°C° 0 mm 5 m/s 761 mmHg 62%
    09:00 +15°C° 0 mm 5 m/s 761 mmHg 57%
    10:00 +17°C° 0 mm 5 m/s 761 mmHg 51%
    11:00 +17°C° 0 mm 5 m/s 761 mmHg 49%
    12:00 +19°C° 0 mm 6 m/s 761 mmHg 47%
    13:00 +19°C° 0 mm 6 m/s 761 mmHg 44%
    14:00 +19°C° 0 mm 6 m/s 761 mmHg 47%
    15:00 +17°C° 0 mm 6 m/s 761 mmHg 50%
    16:00 +17°C° 0 mm 6 m/s 761 mmHg 53%
    17:00 +16°C° 0 mm 6 m/s 761 mmHg 55%
    18:00 +15°C° 0 mm 6 m/s 761 mmHg 57%
    19:00 +14°C° 0 mm 6 m/s 762 mmHg 59%
    20:00 +14°C° 0 mm 6 m/s 762 mmHg 59%
    21:00 +14°C° 0 mm 6 m/s 762 mmHg 59%
    22:00 +13°C° 0 mm 6 m/s 762 mmHg 59%
    23:00 +13°C° 0 mm 6 m/s 762 mmHg 59%
    Arată mai mult